Regional Weather Roundup
Issued by NWS

Home | Current Version | Previous Version | Text Only | Print | Product List | Glossary On
Versions: 1 2 3 4 5 6 7 8 9 10 11 12 13 14 15 16 17 18 19 20 21 22 23 24 25 26 27 28 29 30 31 32 33 34 35 36 37 38 39 40 41 42 43 44 45 46 47 48 49 50
000
ASPQ40 PGUM 040414
RWRPQ
WEATHER ROUNDUP FOR THE MARIANAS AND MICRONESIA
NATIONAL WEATHER SERVICE TIYAN GU
200 PM CHST TUE AUG 04 2015

GUZ001>004-040500-
MARIANA ISLANDS-

CITY           SKY/WX    TMP DP  RH WIND       PRES   REMARKS
GUAM AIRPORT   MOSUNNY   88  77  70 S12G20    29.64F HX 100
ANDERSEN AFB   LGT RAIN  81  77  89 S14       29.64F FOG
ROTA AIRPORT   NOT AVBL
TINIAN AP      NOT AVBL
SAIPAN AP      NOT AVBL

$$

PMZ161-040500-
REPUBLIC OF PALAU-

CITY           SKY/WX    TMP DP  RH WIND       PRES   REMARKS
KOROR AP       NOT AVBL
KOROR WSO      CLOUDY    84  73  70 W15       29.73F HX  91

$$

PMZ171>174-040500-
FEDERATED STATES OF MICRONESIA-

CITY           SKY/WX    TMP DP  RH WIND       PRES   REMARKS
YAP AIRPORT    CLOUDY    84  77  79 SW16G25   29.66F HX  94
CHUUK AP       PTSUNNY   84  79  84 SW9       29.75F HX  96
POHNPEI AP     CLOUDY    86  77  74 NW12      29.74F HX  97
POHNPEI WSO    CLOUDY    86  81  84 NW3       29.76F HX 102
KOSRAE AP      NOT AVBL

$$

PMZ181-040500-
REPUBLIC OF THE MARSHALL ISLANDS-

CITY           SKY/WX    TMP DP  RH WIND       PRES   REMARKS
KWAJALEIN AP   MOSUNNY   88  73  62 NE6       29.72F HX  96
MAJURO AP      NOT AVBL
MAJURO WSO     CLOUDY    86  77  74 S5        29.71F HX  97

$$




USA.gov is the U.S. government's official web portal to all federal, state and local government web resources and services.